This demonstration page uses our WeatherBlox Daily Observations layout. Learn more.

Left ArrowRight Arrow

39.92423, -83.80882

Hourly Observations for February 15, 2021

Temp ( °F °C ) Dew Point ( °F °C ) Humidity (%) Winds ( mph kmh ) Pressure ( in mb ) Visibility ( mi km ) Precip ( " mm )
12:56 am 00:56 Cloudy 18 -7.8 13 -10.6 81 81 N 9 15 30.29 1026 10 16 0.00 0.00
1:35 am 01:35 Cloudy 18 -8 12 -11 79 79 N 8 13 30.34 1027 10 16 0.00 0.00
1:52 am 01:52 Cloudy 18 -8 12 -11 79 79 N 8 13 30.33 1027 10 16 0.00 0.00
1:56 am 01:56 Cloudy 18 -7.8 13 -10.6 81 81 N 9 15 30.30 1026 10 16 0.00 0.00
2:56 am 02:56 Cloudy with Light Snow 17 -8.3 13 -10.6 84 84 N 10 17 30.29 1026 9 14 0.00 0.00
3:28 am 03:28 Cloudy with Light Snow 16 -9 12 -11 86 86 N 9 15 30.33 1027 4 6 0.00 0.00
3:52 am 03:52 Cloudy with Light Snow 16 -9 14 -10 93 93 N 9 15 30.33 1027 4 6 0.00 0.00
3:56 am 03:56 Cloudy with Light Snow 16 -8.9 14 -10 92 92 N 10 17 30.28 1026 4 6 0.00 0.00
4:22 am 04:22 Cloudy with Light Snow 16 -9 14 -10 93 93 N 10 17 30.31 1026 2 3 0.00 0.00
4:56 am 04:56 Cloudy with Light Snow 16 -8.9 14 -10 92 92 N 12 19 30.27 1025 2 3 0.00 0.00
5:13 am 05:13 Cloudy with Light Snow 16 -9 14 -10 93 93 N 12 19 30.29 1026 3 5 0.00 0.00
5:53 am 05:53 Cloudy with Light Snow 16 -9 14 -10 93 93 N 9 15 30.30 1026 3 4 0.00 0.00
5:56 am 05:56 Cloudy with Light Snow 15 -9.4 14 -10 95 95 N 10 17 30.26 1025 3 4 0.00 0.00
6:18 am 06:18 Cloudy with Light Snow 16 -9 14 -10 93 93 N 10 17 30.31 1026 3 5 0.00 0.00
6:53 am 06:53 Cloudy with Light Snow 16 -9 12 -11 86 86 N 9 15 30.31 1026 6 10 0.00 0.00
6:56 am 06:56 Cloudy with Light Snow 15 -9.4 13 -10.6 91 91 N 9 15 30.27 1025 7 11 0.00 0.00
7:56 am 07:56 Cloudy with Light Snow 16 -8.9 14 -10 92 92 NNE 12 19 30.25 1024 9 14 0.00 0.00
8:56 am 08:56 Cloudy with Light Snow 17 -8.3 14 -10 88 88 NNE 13 20 30.26 1025 6 10 0.00 0.00
9:40 am 09:40 Cloudy with Light Snow 18 -8 14 -10 86 86 NNE 13 20 30.30 1026 3 4 0.00 0.00
9:49 am 09:49 Cloudy with Light Snow 18 -8 14 -10 86 86 NNE 12 19 30.31 1026 1 2 0.00 0.00
9:56 am 09:56 Cloudy with Light Snow 17 -8.3 15 -9.4 92 92 NNE 15 24 30.27 1025 1 2 0.00 0.00
10:08 am 10:08 Cloudy with Light Snow 18 -8 16 -9 93 93 NNE 13 20 30.29 1026 1 2 0.00 0.00
10:35 am 10:35 Cloudy with Light Snow 18 -8 14 -10 86 86 NNE 16 26 30.24 1024 3 4 0.00 0.00
10:44 am 10:44 Cloudy with Light Snow 18 -8 14 -10 86 86 NNE 16 26 30.24 1024 3 5 0.00 0.00
10:56 am 10:56 Cloudy with Light Snow 18 -7.8 15 -9.4 88 88 NNE 16 26 30.21 1023 4 6 0.00 0.00
11:56 am 11:56 Cloudy 19 -7.2 16 -8.9 88 88 NNE 15 24 30.19 1023 9 14 0.00 0.00
12:56 pm 12:56 Cloudy 20 -6.7 15 -9.4 81 81 NE 16 26 30.16 1021 10 16 0.00 0.00
1:56 pm 13:56 Cloudy 20 -6.7 16 -8.9 85 85 NNE 18 30 30.09 1019 10 16 0.00 0.00
2:56 pm 14:56 Cloudy with Light Snow 20 -6.7 16 -8.9 85 85 NE 14 22 30.04 1017 9 14 0.00 0.00
3:38 pm 15:38 Cloudy with Light Snow 19 -7 18 -8 93 93 NNE 18 30 30.03 1017 3 4 0.00 0.00
3:52 pm 15:52 Windy with Snow Likely 19 -7 18 -8 93 93 NE 20 31 30.03 1017 3 5 0.00 0.00
3:56 pm 15:56 Cloudy with Light Snow 19 -7.2 17 -8.3 92 92 NNE 13 20 30.02 1017 3 5 0.00 0.00
4:05 pm 16:05 Cloudy with Light Snow 19 -7 18 -8 93 93 NNE 17 28 30.05 1017 2 3 0.00 0.00
4:16 pm 16:16 Cloudy with Light Snow 19 -7 18 -8 93 93 NNE 15 24 30.03 1017 1 2 0.00 0.00
4:50 pm 16:50 Cloudy with Light Snow 18 -8 16 -9 93 93 NNE 17 28 30.00 1016 1 2 0.00 0.00
4:56 pm 16:56 Windy with Snow Likely 18 -7.8 16 -8.9 92 92 NNE 20 31 29.96 1015 2 2 0.00 0.00
5:08 pm 17:08 Windy with Snow Likely 18 -8 16 -9 93 93 NNE 24 39 29.97 1015 2 2 0.00 0.00
5:25 pm 17:25 Windy with Snow Likely 18 -8 16 -9 93 93 NNE 22 35 29.96 1015 1 2 0.00 0.00
5:29 pm 17:29 Windy with Snow Likely 18 -8 16 -9 93 93 NE 22 35 29.95 1014 1 2 0.00 0.00
5:41 pm 17:41 Windy with Snow Likely 18 -8 16 -9 93 93 NNE 22 35 29.93 1014 3 4 0.00 0.00
5:56 pm 17:56 Windy with Snow Likely 17 -8.3 15 -9.4 92 92 NE 21 33 29.90 1013 3 4 0.00 0.00
6:39 pm 18:39 Windy with Snow Likely 18 -8 14 -10 86 86 NE 22 35 29.91 1013 3 5 0.00 0.00
6:56 pm 18:56 Windy with Snow Likely 16 -8.9 14 -10 92 92 NE 23 37 29.85 1011 3 5 0.00 0.00
7:11 pm 19:11 Windy with Snow Likely 16 -9 14 -10 93 93 NE 25 41 29.85 1011 2 3 0.00 0.00
7:31 pm 19:31 Windy with Snow Likely 16 -9 14 -10 93 93 NE 25 41 29.83 1010 2 3 0.00 0.00
7:56 pm 19:56 Windy with Snow Likely 16 -8.9 15 -9.4 96 96 NE 23 37 29.77 1008 2 2 0.00 0.00
8:56 pm 20:56 Cloudy with Light Snow 17 -8.3 16 -8.9 95 95 NE 16 26 29.71 1006 2 3 0.00 0.00
9:53 pm 21:53 Cloudy with Light Snow 18 -8 18 -8 100 100 NNE 10 17 29.78 1008 1 2 0.00 0.00
9:56 pm 21:56 Cloudy with Light Snow 18 -7.8 18 -7.8 100 100 NNE 10 17 29.75 1007 1 2 0.00 0.00
10:06 pm 22:06 Cloudy with Light Snow 18 -8 18 -8 100 100 N 8 13 29.78 1008 1 1 0.00 0.00
10:16 pm 22:16 Cloudy with Snow 18 -8 18 -8 100 100 N 8 13 29.77 1008 1 1 0.00 0.00
10:27 pm 22:27 Cloudy with Light Snow 18 -8 18 -8 100 100 N 9 15 29.76 1008 1 1 0.00 0.00
10:54 pm 22:54 Cloudy with Light Snow 18 -8 16 -9 93 93 NNW 13 20 29.76 1008 1 2 0.00 0.00
10:56 pm 22:56 Cloudy with Light Snow 17 -8.3 16 -8.9 95 95 NNW 14 22 29.72 1006 2 2 0.00 0.00
11:19 pm 23:19 Cloudy with Light Snow 18 -8 16 -9 93 93 NNW 13 20 29.77 1008 2 2 0.00 0.00
11:27 pm 23:27 Cloudy with Light Snow 18 -8 16 -9 93 93 NW 9 15 29.77 1008 2 3 0.00 0.00
11:39 pm 23:39 Cloudy with Light Snow 16 -9 16 -9 100 100 NW 13 20 29.78 1009 1 2 0.00 0.00
11:56 pm 23:56 Cloudy with Light Snow 16 -8.9 15 -9.4 96 96 NW 14 22 29.74 1007 1 2 0.00 0.00

Powered by AerisWeather